This is the latest recevied weather packets stored in our database for station/object SV9FBP. If no packets are shown the sender has not sent any weather packets the latest 10 day(s).
| Time | Temp. | Humidity | Pressure | Rain* | Wind** | Luminosity | Snow |
|---|---|---|---|---|---|---|---|
| 1778241699 | 20.56° C | 62% | 1018.4 hPa | 0 mm | - | - | - |
| 1778240796 | 20.56° C | 64% | 1018.6 hPa | 0 mm | - | - | - |
| 1778239895 | 20.56° C | 68% | 1018.4 hPa | 0 mm | - | - | - |
| 1778238992 | 20.56° C | 69% | 1018.7 hPa | 0 mm | - | - | - |
| 1778238090 | 20.56° C | 68% | 1018.7 hPa | 0 mm | - | - | - |
| 1778237188 | 20.56° C | 69% | 1018.7 hPa | 0 mm | - | - | - |
| 1778236285 | 20.56° C | 71% | 1018.6 hPa | 0 mm | - | - | - |
| 1778235383 | 20.56° C | 71% | 1018.6 hPa | 0 mm | - | - | - |
| 1778234481 | 20° C | 73% | 1018.8 hPa | 0 mm | - | - | - |
| 1778233579 | 20° C | 76% | 1019.1 hPa | 0 mm | - | - | - |
| 1778232677 | 20° C | 76% | 1019.1 hPa | 0 mm | - | - | - |
| 1778231774 | 20.56° C | 75% | 1019.3 hPa | 0 mm | - | - | - |
| 1778230873 | 20.56° C | 75% | 1019.5 hPa | 0 mm | - | - | - |
| 1778229970 | 20.56° C | 76% | 1019.5 hPa | 0 mm | - | - | - |
| 1778229069 | 20.56° C | 78% | 1019.3 hPa | 0 mm | - | - | - |
| 1778228166 | 20.56° C | 79% | 1019.1 hPa | 0 mm | - | - | - |
| 1778227264 | 20° C | 78% | 1019 hPa | 0 mm | - | - | - |
| 1778226362 | 20° C | 79% | 1018.7 hPa | 0 mm | - | - | - |
| 1778225460 | 20° C | 80% | 1018.3 hPa | 0 mm | - | - | - |
| 1778224557 | 20° C | 81% | 1017.8 hPa | 0 mm | - | - | - |
| 1778223656 | 19.44° C | 81% | 1017.5 hPa | 0 mm | - | - | - |
| 1778222753 | 19.44° C | 82% | 1017.4 hPa | 0 mm | - | - | - |
| 1778221851 | 19.44° C | 82% | 1017 hPa | 0 mm | - | - | - |
| 1778220949 | 18.89° C | 82% | 1016.9 hPa | 0 mm | - | - | - |
| 1778220047 | 18.89° C | 82% | 1017 hPa | 0 mm | - | - | - |
* Rain latest hour (hover to see other rain measurements)
** Current wind speed in m/s (hover to see current wind gust speed)